Date,TemperatureHighF,TemperatureAvgF,TemperatureLowF,DewpointHighF,DewpointAvgF,DewpointLowF,HumidityHigh,HumidityAvg,HumidityLow,PressureMaxIn,PressureMinIn,WindSpeedMaxMPH,WindSpeedAvgMPH,GustSpeedMaxMPH,PrecipitationSumIn
2012-4-11,52.9,37.5,38.1,32.1,-1.6,-99.9,76,35,37,30.27,30.21,9,-232,15,0.00
2012-4-12,57.9,29.2,32.0,36.0,-23.5,-99.9,89,30,35,30.31,30.15,8,-417,17,0.00
2012-4-13,-200.0,0.0,200.0,-99.9,-99.9,-99.9,0,0,100,30.20,30.19,0,-999,0,0.00
2012-4-16,61.8,51.2,46.9,58.2,36.3,-99.9,89,66,61,30.19,29.60,33,-45,45,0.01
2012-4-17,57.9,48.5,39.7,41.2,38.6,35.7,94,70,46,30.37,30.19,7,2,14,0.00
2012-4-18,68.1,53.7,37.0,44.7,38.9,33.0,88,60,39,30.31,29.99,12,4,21,0.00
2012-4-19,76.2,64.6,56.3,50.6,45.9,41.9,68,53,30,30.00,29.76,15,8,26,0.00
2012-4-20,67.2,54.7,41.1,52.1,45.3,39.8,98,73,45,29.89,29.65,19,9,24,0.05
2012-4-21,54.5,45.1,37.0,39.9,32.7,25.5,95,66,34,30.00,29.89,14,6,21,0.00
2012-4-22,50.7,43.2,35.7,32.1,27.9,22.8,78,56,36,30.03,29.97,18,9,26,0.00
2012-4-23,54.8,44.8,35.0,26.9,20.8,13.6,65,41,22,30.02,29.76,19,7,28,0.00
2012-4-24,59.2,48.5,35.7,28.4,24.6,20.9,65,42,24,29.76,29.70,16,8,32,0.00
2012-4-25,55.4,51.0,43.5,52.1,41.2,24.3,91,71,39,29.79,29.67,10,4,18,0.05
2012-4-26,56.9,49.9,37.3,51.6,40.8,17.7,95,74,28,30.13,29.59,15,7,28,0.01
2012-4-27,56.3,43.1,30.7,29.6,22.4,18.2,73,46,25,30.29,30.11,11,5,17,0.00
2012-4-28,49.2,44.6,40.7,40.3,34.6,26.4,87,69,41,30.23,30.08,15,8,26,0.23
2012-4-29,63.4,50.3,37.3,44.7,35.9,32.1,84,61,33,30.29,30.12,14,7,23,0.27
2012-4-30,64.8,56.4,46.2,61.9,49.8,28.1,97,80,42,30.12,29.86,11,6,18,0.37
2012-5-1,66.1,58.5,52.4,59.4,55.5,51.9,99,90,70,30.04,29.86,11,4,16,0.17
2012-5-2,78.6,66.7,59.0,68.3,62.9,58.2,100,89,62,29.88,29.84,22,11,34,0.00
2012-5-3,85.4,79.1,70.5,68.6,64.3,57.6,81,62,46,29.96,29.84,21,12,32,0.00
2012-5-4,74.2,70.0,66.7,62.8,60.5,57.2,87,72,56,29.92,29.86,12,8,21,0.00
2012-5-7,68.5,60.3,52.3,63.0,57.4,48.9,96,90,80,29.88,29.78,13,4,17,0.56
2012-5-8,68.2,58.1,50.6,57.0,50.9,46.1,99,80,47,29.86,29.80,13,6,22,0.00
2012-5-9,60.1,54.9,46.3,49.6,45.3,36.7,86,71,55,29.91,29.82,16,7,25,0.00
2012-5-10,65.7,53.3,41.4,41.4,36.0,27.1,90,57,25,30.04,29.91,8,3,17,0.00
2012-5-11,75.8,60.7,41.3,44.0,36.2,29.2,83,46,19,30.15,30.04,10,3,19,0.00
2012-5-12,63.8,61.8,60.9,44.7,42.3,39.6,54,49,41,30.15,30.14,7,4,8,0.00
2012-5-17,71.1,63.8,47.6,42.4,37.7,33.3,75,40,26,30.18,30.06,10,6,19,0.00
2012-5-18,81.8,67.0,50.1,42.7,38.4,34.9,60,37,20,30.12,29.99,10,5,16,0.00
2012-5-19,70.8,68.8,67.1,39.0,38.4,37.6,35,33,30,30.03,30.02,7,4,13,0.00
2012-5-21,61.7,59.0,54.5,55.7,52.5,49.1,91,79,70,30.06,30.01,13,5,21,0.34
2012-5-22,72.9,60.3,48.6,51.1,47.2,43.4,86,65,40,30.04,29.90,8,3,13,0.00
2012-5-23,80.3,65.2,51.2,55.1,50.6,45.8,87,62,37,29.92,29.82,10,4,16,0.00
2012-5-25,84.1,77.4,68.6,64.2,54.5,43.2,69,47,24,30.06,29.80,13,6,18,0.00
2012-5-26,88.9,74.7,65.1,63.8,54.7,45.3,59,50,40,30.15,29.99,15,7,21,0.00
2012-5-27,72.7,71.3,70.3,56.1,54.4,52.4,57,55,53,30.05,30.02,9,7,18,0.00
2012-5-29,83.6,76.4,67.4,62.7,50.0,41.8,70,42,23,29.83,29.73,17,7,28,0.00
2012-5-30,71.8,64.1,54.6,50.3,45.6,41.6,73,52,35,29.91,29.80,14,4,23,0.00
2012-5-31,64.7,54.7,48.9,52.4,48.2,43.7,98,80,63,29.96,29.76,17,7,24,0.36
2012-6-1,53.3,50.6,48.2,50.9,48.0,44.1,97,91,75,29.79,29.67,20,9,25,0.11
2012-6-2,71.6,58.6,45.1,53.7,47.1,40.2,94,69,34,29.79,29.72,20,10,33,0.00
2012-6-3,77.6,66.2,52.9,56.9,49.1,38.8,94,60,25,29.82,29.78,16,8,25,0.00
2012-6-4,76.8,67.5,58.5,53.6,50.8,45.3,81,57,35,29.87,29.76,11,4,18,0.00
2012-6-5,68.4,61.4,53.5,51.7,48.7,43.6,86,65,43,30.00,29.87,11,6,19,0.00
2012-6-6,76.3,64.5,49.4,51.1,47.1,41.6,90,57,30,30.07,29.99,10,3,15,0.00
2012-6-7,79.8,50.3,54.3,54.1,3.5,-99.9,85,32,30,30.10,30.02,8,-303,16,0.00
2012-6-8,85.0,42.7,-90.0,51.3,-18.2,-99.9,74,20,23,30.07,29.90,10,-427,17,0.00
2012-6-9,86.9,42.3,-90.0,54.8,-20.5,-99.9,63,19,27,29.96,29.85,14,-469,20,0.00
2012-6-10,91.4,45.1,-90.0,61.6,-14.8,-99.9,62,22,30,29.98,29.88,11,-449,21,0.00
2012-6-11,84.8,40.2,-90.0,69.2,-13.7,-99.9,79,35,56,29.89,29.77,12,-472,19,0.00
2012-6-12,75.3,38.4,-90.0,65.2,-16.3,-99.9,72,27,38,30.10,29.80,17,-406,27,0.00
2012-6-13,-200.0,0.0,200.0,-99.9,-99.9,-99.9,0,0,100,30.13,30.10,0,-999,0,0.00
2012-6-19,85.9,20.9,76.5,69.4,-56.9,-99.9,67,16,57,30.01,29.93,17,-740,25,0.12
2012-6-20,-200.0,0.0,200.0,-99.9,-99.9,-99.9,0,0,100,30.06,29.93,0,-999,0,0.00
2012-6-21,-200.0,0.0,200.0,-99.9,-99.9,-99.9,0,0,100,29.98,29.88,0,-999,0,0.00
2012-6-22,-200.0,0.0,200.0,-99.9,-99.9,-99.9,0,0,100,29.99,29.93,0,-999,0,0.00
2012-6-23,-200.0,0.0,200.0,-99.9,-99.9,-99.9,0,0,100,30.03,29.97,0,-999,0,0.00
2012-6-24,-200.0,0.0,200.0,-99.9,-99.9,-99.9,0,0,100,30.02,29.89,0,-999,0,0.00
2012-6-25,-200.0,0.0,200.0,-99.9,-99.9,-99.9,0,0,100,30.03,29.92,0,-999,0,0.00
2012-6-26,80.8,24.7,67.1,53.3,-52.9,-99.9,57,12,28,30.09,29.90,5,-676,8,0.04
2012-6-27,88.6,74.9,58.1,53.4,50.6,47.4,71,45,26,30.01,29.81,13,6,23,0.00
2012-6-28,99.7,86.1,74.6,76.3,65.3,52.3,71,50,42,29.83,29.69,16,9,27,0.00
2012-6-29,87.9,76.5,60.5,71.9,67.2,59.5,97,74,51,29.96,29.68,17,3,26,0.20
2012-6-30,85.3,75.7,66.5,74.2,68.9,64.8,96,81,57,29.89,29.76,13,5,19,0.22
2012-7-1,89.2,76.5,68.7,73.9,68.7,60.4,98,79,48,30.01,29.83,28,3,36,0.00
2012-7-2,90.4,85.5,68.9,73.9,70.7,66.5,93,62,49,29.99,29.89,9,4,15,0.00
2012-7-3,91.8,82.6,72.0,74.3,69.4,64.6,83,66,44,29.91,29.80,12,7,18,0.00
2012-7-4,97.8,86.7,75.0,75.1,71.9,67.1,88,64,37,29.87,29.80,13,7,21,0.00
2012-7-5,98.6,86.9,76.5,75.2,70.9,64.0,87,62,33,29.92,29.84,11,4,18,0.00
2012-7-6,99.5,88.8,77.3,78.0,74.1,69.6,87,64,41,29.92,29.85,10,4,19,0.00
2012-7-7,99.2,88.2,76.6,77.6,72.8,67.7,83,63,38,29.92,29.84,12,5,18,0.00
2012-7-8,84.3,77.0,70.7,69.5,64.2,54.4,89,67,36,30.00,29.90,10,4,15,0.00
2012-7-9,88.4,56.2,-90.0,64.1,13.2,-99.9,81,37,35,30.02,29.93,8,-282,16,0.00
2012-7-10,86.9,49.9,63.8,63.9,0.1,-99.9,82,33,30,30.05,29.98,9,-363,16,0.00
2012-7-11,87.1,50.0,63.8,59.4,-4.1,-99.9,77,26,29,30.11,30.03,9,-372,17,0.00
2012-7-12,-200.0,0.0,200.0,-99.9,-99.9,-99.9,0,0,100,30.07,30.05,0,-999,0,0.00
2012-7-19,82.0,53.3,68.8,75.9,18.7,-99.9,100,59,73,29.93,29.80,8,-310,14,0.07
2012-7-20,80.1,39.0,64.9,63.3,-16.7,-99.9,91,32,49,30.03,29.86,11,-478,19,0.00
2012-7-21,84.2,40.4,-90.0,69.6,-14.6,-99.9,100,32,49,30.10,29.99,7,-467,10,0.00
2012-7-22,86.5,46.6,70.3,71.6,-3.6,-99.9,85,37,51,30.09,30.00,10,-423,14,0.00
2012-7-23,92.8,51.3,-90.0,76.0,4.5,-99.9,89,40,51,30.01,29.84,13,-386,18,0.14
2012-7-24,81.9,76.4,68.4,73.0,70.9,67.0,99,84,68,30.02,29.82,11,4,17,0.83
2012-7-25,92.2,79.0,69.1,80.3,68.9,58.5,90,72,57,29.92,29.60,12,6,18,0.00
2012-7-26,83.6,78.8,69.0,74.9,71.4,67.1,95,78,63,29.76,29.58,13,7,22,0.06
2012-7-27,84.9,74.0,66.6,71.1,66.9,64.2,98,80,53,29.89,29.71,12,5,18,0.08
2012-7-28,82.5,71.4,62.9,65.5,61.3,54.6,97,74,39,30.06,29.89,9,3,15,0.00
2012-7-29,84.1,72.7,59.3,64.8,59.6,52.9,98,67,38,30.10,29.96,5,1,9,0.00
2012-7-30,89.8,77.9,68.6,68.8,64.7,61.3,87,66,45,29.99,29.87,6,2,11,0.00
2012-7-31,83.4,74.8,64.0,71.2,66.1,61.4,96,75,59,29.96,29.83,16,6,20,0.23
2012-8-1,82.5,69.7,61.5,65.8,61.3,54.3,98,79,43,29.93,29.89,8,3,12,0.00
2012-8-6,-200.0,0.0,200.0,-99.9,-99.9,-99.9,0,0,100,30.17,30.13,0,-999,0,0.00
2012-8-22,82.8,76.0,66.6,57.8,52.6,48.7,63,45,35,30.18,30.08,8,3,14,0.03
2012-8-23,88.3,74.5,61.6,61.6,55.4,52.1,74,53,33,30.17,30.08,6,3,12,0.00
2012-8-24,90.0,75.3,65.2,62.3,58.3,55.9,74,57,35,30.11,30.03,8,3,12,0.00
2012-8-25,91.3,84.6,76.3,63.3,61.2,58.0,58,46,34,30.07,30.04,6,3,10,0.00
2012-8-26,76.3,75.3,74.0,60.6,60.2,59.8,63,59,57,30.07,30.06,5,4,6,0.00
2012-8-27,83.3,75.9,66.9,72.6,64.7,57.5,99,71,45,30.08,29.95,8,3,18,1.63
2012-8-28,82.1,70.5,58.5,61.9,59.4,56.5,94,70,45,30.16,30.05,7,2,12,0.00
2012-8-29,84.7,70.2,58.0,62.1,58.0,51.9,97,69,35,30.14,30.04,5,2,11,0.00
2012-8-30,85.4,73.1,60.7,60.7,58.1,55.8,85,62,38,30.13,30.02,9,4,16,0.00
2012-8-31,89.0,76.3,66.5,72.1,63.9,55.7,78,66,54,30.12,30.04,16,8,23,0.00
2012-9-4,86.1,79.7,72.4,71.1,69.9,68.6,90,73,58,29.88,29.85,5,1,11,0.00
2012-9-5,79.8,72.9,67.2,72.2,68.2,63.5,95,85,72,29.92,29.81,22,4,22,0.01
2012-9-6,84.0,73.7,65.6,69.7,62.9,53.3,98,72,37,29.94,29.85,12,5,18,0.00
2012-9-7,81.1,68.5,60.5,67.5,62.3,57.1,96,81,51,29.94,29.74,11,3,19,0.23
2012-9-8,68.5,61.5,55.3,61.1,53.4,47.6,97,77,49,29.91,29.76,18,6,25,0.14
2012-9-9,73.0,61.9,54.4,56.4,52.9,49.6,98,75,45,30.15,29.90,7,2,14,0.06
2012-9-10,75.9,62.5,49.1,51.3,47.3,41.6,93,63,31,30.28,30.15,6,2,9,0.00
2012-9-11,81.0,67.8,56.2,54.7,51.4,47.2,81,58,37,30.25,30.15,14,6,22,0.00
2012-9-12,78.4,64.2,57.9,58.5,53.7,51.7,80,69,49,30.25,30.18,10,5,15,0.00
2012-9-13,76.0,66.0,60.9,61.8,58.4,56.3,85,77,57,30.27,30.19,8,3,11,0.00
2012-9-14,72.1,61.0,51.9,56.8,49.1,39.9,97,69,37,30.36,30.27,10,3,15,0.49
2012-9-15,77.4,62.4,48.3,51.5,47.2,41.4,89,60,35,30.37,30.20,7,2,14,0.00
2012-9-16,77.4,65.0,53.1,52.9,47.8,38.3,84,57,28,30.20,30.04,11,4,16,0.00
2012-9-17,62.5,61.4,60.1,49.2,48.9,48.5,67,64,61,30.05,30.03,4,2,6,0.00
2012-9-19,68.6,62.1,50.2,43.4,38.6,34.1,74,43,31,30.17,30.00,14,9,24,0.00
2012-9-20,71.5,61.5,54.8,52.0,44.2,38.9,78,54,31,30.01,29.90,13,7,22,0.00
2012-9-21,68.9,55.6,46.9,50.9,43.3,35.9,95,66,30,29.99,29.83,14,5,20,0.04
2012-9-22,54.0,50.1,46.6,50.1,45.1,39.3,98,83,64,30.19,29.81,23,9,31,0.07
2012-9-23,56.9,48.6,41.2,42.2,37.6,32.1,91,68,41,30.31,30.19,16,6,26,0.00
2012-9-24,66.8,52.1,38.7,39.7,34.8,28.2,88,57,25,30.30,30.02,17,8,27,0.00
2012-9-25,56.0,54.8,53.3,43.6,40.9,37.6,68,60,50,30.03,29.95,10,6,15,0.00
2012-9-29,72.0,65.3,55.0,50.2,43.4,40.8,72,46,33,30.13,29.99,12,6,19,0.00
2012-9-30,65.8,55.1,44.5,49.6,44.7,40.6,97,71,42,30.00,29.94,12,4,19,0.00
2012-10-1,63.1,54.4,41.7,49.6,45.0,40.1,95,72,51,29.99,29.84,8,4,13,0.00
2012-10-2,62.4,57.8,51.7,58.2,52.7,48.0,94,84,75,29.93,29.82,12,6,16,0.12
2012-10-3,61.0,59.0,57.5,59.4,56.7,53.3,97,92,84,30.10,29.92,11,4,18,0.07
2012-10-4,77.8,64.9,54.4,58.5,54.2,51.3,93,71,43,30.16,30.05,18,9,29,0.07
2012-10-5,58.1,47.6,40.4,56.1,44.6,38.1,95,89,77,30.17,30.08,11,7,15,0.16
2012-10-6,46.5,41.1,33.7,38.5,33.5,30.2,93,75,56,30.22,30.09,15,7,20,0.00
2012-10-7,47.7,42.9,38.1,38.1,35.0,33.1,87,74,63,30.24,30.17,15,5,21,0.00
2012-10-8,55.7,43.1,32.6,34.8,28.3,24.8,90,59,31,30.29,30.14,11,5,17,0.00
2012-10-9,61.6,50.6,40.8,41.5,36.1,30.1,75,59,40,30.17,29.90,17,8,25,0.00
2012-10-10,54.4,44.2,39.0,44.3,34.1,25.8,95,70,42,30.25,29.89,20,11,27,0.20
2012-10-11,38.9,37.2,36.3,30.1,29.8,29.5,77,74,70,30.27,30.25,6,4,7,0.00
2012-10-15,52.5,47.7,41.5,46.2,41.9,37.6,96,81,61,30.03,29.82,15,7,19,0.00
2012-10-16,64.0,50.5,37.3,46.2,40.7,36.0,96,72,47,30.05,29.73,12,6,23,0.00
2012-10-17,70.8,61.6,54.0,55.1,50.3,46.1,92,68,45,29.73,29.46,17,10,38,0.38
2012-10-18,59.9,52.8,44.9,55.1,43.9,31.7,95,74,38,29.67,29.36,22,12,34,0.38
2012-10-19,49.0,45.7,43.6,46.5,43.7,41.5,96,93,87,29.68,29.54,11,7,22,0.45
2012-10-20,54.2,46.7,41.4,44.9,42.6,40.6,98,86,66,30.00,29.68,13,8,20,0.00
2012-10-21,67.4,52.2,39.7,49.9,44.9,38.6,97,78,53,30.15,30.00,9,4,16,0.00
2012-10-22,69.4,60.2,52.5,60.8,53.9,47.6,93,80,61,30.09,29.95,18,6,27,0.06
2012-10-23,66.6,62.8,60.1,61.7,58.5,55.2,96,86,71,30.03,29.94,19,7,30,0.08
2012-10-24,65.2,63.8,63.0,60.0,59.1,58.2,90,85,78,30.01,30.00,8,5,12,0.00
2012-10-25,77.2,70.7,58.3,61.4,58.0,53.5,84,65,55,29.97,29.82,18,7,29,0.05
2012-10-26,57.7,45.0,38.4,53.5,38.5,33.7,95,78,62,30.32,29.93,15,8,27,0.19
2012-10-27,49.6,41.1,33.3,36.8,32.5,29.8,87,73,47,30.33,30.22,15,9,21,0.00
2012-10-28,45.6,39.9,33.9,35.1,31.8,28.4,89,73,60,30.30,30.22,17,10,25,0.00
2012-10-29,47.2,40.5,33.6,31.7,27.1,22.3,77,60,40,30.25,29.94,26,14,36,0.01
2012-10-30,42.0,40.0,38.9,36.9,33.4,25.0,91,78,53,29.93,29.67,23,14,42,0.54
2012-10-31,42.4,40.1,38.5,39.3,37.1,35.0,95,89,83,29.86,29.71,12,5,22,0.03
2012-11-1,50.8,41.7,32.9,38.5,31.2,24.8,94,69,37,29.92,29.84,11,5,29,0.00
2012-11-2,46.3,39.8,33.7,34.9,32.2,29.5,90,74,58,30.19,29.91,14,4,21,0.00
2012-11-3,34.8,30.9,28.4,31.6,29.1,27.2,96,93,88,30.26,30.18,5,2,7,0.00
2012-11-12,39.5,34.3,31.0,37.8,26.7,22.5,95,74,58,30.39,30.02,18,12,29,0.53
2012-11-13,33.5,31.9,27.4,26.2,23.7,21.1,78,71,65,30.50,30.39,14,7,21,0.00
2012-11-14,40.5,35.9,29.7,27.6,26.6,23.3,83,69,58,30.64,30.49,7,2,11,0.00
2012-11-15,31.7,30.6,29.3,27.1,26.6,26.1,88,85,83,30.50,30.47,3,2,5,0.00
2012-11-23,36.0,35.9,35.7,31.2,30.8,29.9,83,82,79,29.97,29.95,20,17,22,0.05
2012-12-1,59.1,48.2,34.4,50.3,41.4,31.9,92,78,65,30.25,30.05,16,8,24,0.00
2012-12-2,59.1,56.5,53.6,55.2,52.1,45.8,98,86,62,30.12,29.98,17,8,26,0.24
2012-12-3,64.9,59.6,53.2,61.1,57.4,52.7,100,93,77,30.12,29.93,19,10,30,0.02
2012-12-4,63.2,51.2,42.1,57.9,44.6,34.4,95,79,58,30.24,29.95,16,7,28,0.50
2012-12-5,41.9,34.3,29.6,34.9,27.5,23.9,84,76,63,30.48,30.24,10,5,15,0.00
2012-12-6,41.3,34.5,27.8,36.9,29.5,23.4,87,82,76,30.35,30.02,9,6,15,0.00
2012-12-7,45.2,42.5,39.4,43.5,40.6,36.3,98,93,85,30.03,29.90,10,3,11,0.09
2012-12-8,42.8,42.5,42.3,42.5,42.2,42.0,99,99,98,29.98,29.87,4,1,7,0.04
2012-12-10,35.9,31.4,30.0,33.5,30.0,28.2,97,95,89,29.99,29.76,15,9,22,0.00
2012-12-11,32.6,29.7,26.6,30.4,25.4,21.8,97,84,65,30.26,29.98,14,8,24,0.00
2012-12-12,41.0,32.6,25.4,29.0,25.3,22.1,88,75,56,30.44,30.26,11,7,18,0.00
2012-12-13,33.5,32.4,31.6,26.5,26.1,25.7,79,77,75,30.43,30.41,7,7,14,0.00
2012-12-18,38.3,35.9,30.8,35.7,33.1,29.7,96,90,83,29.88,29.73,15,8,21,0.02
2012-12-19,41.4,40.2,39.3,36.6,35.9,35.0,87,85,79,30.13,30.00,8,4,14,0.00
2012-12-20,50.9,40.7,32.9,48.7,38.5,31.2,98,92,74,30.01,29.16,24,13,45,1.18
2012-12-21,33.7,32.2,30.1,32.5,29.9,26.7,98,91,81,30.14,29.27,29,7,50,0.05
2012-12-22,30.0,29.6,29.5,27.6,27.1,26.2,91,90,87,30.18,30.14,6,4,16,0.00
2012-12-26,27.3,26.7,24.7,25.8,24.4,21.9,94,91,89,30.07,29.95,21,14,28,0.00
2012-12-27,36.0,27.2,23.4,26.7,22.8,20.0,90,83,66,30.25,30.07,12,3,20,0.00
2012-12-28,30.1,28.3,26.8,27.0,25.8,25.2,96,90,83,30.23,29.97,10,3,12,0.00
2012-12-29,30.8,27.6,24.9,28.5,25.7,21.8,97,93,88,30.24,29.91,14,6,23,0.00
2012-12-30,26.9,22.4,16.7,21.7,18.4,13.8,92,85,75,30.47,30.25,16,9,24,0.00
2012-12-31,34.4,29.8,24.8,30.1,25.7,20.1,95,85,72,30.29,30.08,19,11,28,0.00
2013-1-1,31.1,24.6,14.4,25.6,20.0,11.8,93,83,63,30.24,30.13,6,2,10,0.00